Regional Weather Roundup
Issued by NWS Portland, ME

Current Version | Previous Version | Text Only | Print | Product List | Glossary Off
Versions: 1 2 3 4 5 6 7 8 9 10 11 12 13 14 15 16 17 18 19 20 21 22 23 24 25 26 27 28 29 30 31 32 33 34 35 36 37 38 39 40 41 42 43 44 45 46 47 48 49 50
000 ASUS41 KGYX 130605 RWRGYX WEATHER ROUNDUP FOR MAINE AND NEW HAMPSHIRE NATIONAL WEATHER SERVICE GRAY ME 100 AM EST WED DEC 13 2017 MEZ002-005-006-010-012-015-018-020-021-024-026-027-029-130700- MAINE CITY SKY/WX TMP DP RH WIND PRES REMARKS PORTLAND CLOUDY 31 30 96 VRB6 29.16S 6HR MIN TEMP: 29; 6HR MAX TEMP: 32; 6HR PCP: 0.05; SANFORD CLOUDY 25 24 96 SW3 29.17F BAR HARBOR LGT RAIN 45 45 100 S10 29.12F VSB 3/4 WISCASSET CLOUDY 30 30 100 VRB5 29.17F FOG 6HR MIN TEMP: 30; 6HR MAX TEMP: 36; 6HR PCP: 0.10; ROCKLAND FOG 43 43 100 W13 29.11F VSB 3/4 FRYEBURG CLOUDY 27 27 100 CALM 29.15F 6HR MIN TEMP: 25; 6HR MAX TEMP: 28; 6HR PCP: 0.15; LEWISTONAUBURN CLOUDY 29 28 96 NW5 29.15F AUGUSTA CLOUDY 29 28 96 NW8 29.15F FOG 6HR MIN TEMP: 25; 6HR MAX TEMP: 29; WATERVILLE MIX PCPN 29 28 96 NW9 29.11F FOG BANGOR CLOUDY 33 32 96 W3 29.13F FOG 6HR MIN TEMP: 25; 6HR MAX TEMP: 33; GREENVILLE N/A 24 24 100 NW14 29.11S WCI 12 6HR MIN TEMP: 24; 6HR MAX TEMP: 32; 6HR PCP: 0.50; MILLINOCKET FRZ RAIN 32 32 100 E7 29.15F FOG 6HR MIN TEMP: 19; 6HR MAX TEMP: 32; 6HR PCP: 0.33; HOULTON CLOUDY 35 34 96 E9G17 29.17F 6HR MIN TEMP: 22; 6HR MAX TEMP: 35; 6HR PCP: 0.28; PRESQUE ISLE LGT SNOW 32 31 96 N6 29.22F FOG 6HR MIN TEMP: 21; 6HR MAX TEMP: 32; 6HR PCP: 0.26; FRENCHVILLE SNOW 26 25 96 E14G25 29.23F VSB 1/2 WCI 14 6HR MIN TEMP: 15; 6HR MAX TEMP: 26; 6HR PCP: 0.13; CARIBOU LGT SNOW 33 30 88 E12G18 29.22F FOG 6HR MIN TEMP: 23; 6HR MAX TEMP: 33; 6HR PCP: 0.39; $$ NHZ002-005-008-009-011-012-014-130700- NEW HAMPSHIRE CITY SKY/WX TMP DP RH WIND PRES REMARKS PORTSMOUTH CLOUDY 31 28 90 W3 29.19F ROCHESTER CLOUDY 30 28 92 VRB7 29.17F 6HR MIN TEMP: 27; 6HR MAX TEMP: 30; NASHUA CLOUDY 30 28 92 NW7 29.22F MANCHESTER CLOUDY 31 25 78 W8 29.22F 6HR MIN TEMP: 30; 6HR MAX TEMP: 32; 6HR PCP: 0.01; CONCORD CLOUDY 31 26 82 W14 29.23S 6HR MIN TEMP: 28; 6HR MAX TEMP: 31; 6HR PCP: 0.03; LACONIA CLOUDY 29 27 92 W13 29.20R WCI 19 PLYMOUTH CLOUDY 30 26 84 W13G21 29.21S WCI 20 BERLIN CLOUDY 26 23 88 VRB3 29.18F 6HR MIN TEMP: 23; 6HR MAX TEMP: 26; 6HR PCP: 0.24; WHITEFIELD CLOUDY 25 22 88 VRB5 29.22F 6HR MIN TEMP: 25; 6HR MAX TEMP: 28; 6HR PCP: 0.11; JAFFREY CLOUDY 27 24 89 W8 29.22F 6HR MIN TEMP: 27; 6HR MAX TEMP: 33; 6HR PCP: TRACE; KEENE FLURRIES 26 23 88 W10 29.28F WCI 16 LEBANON CLOUDY 28 23 81 SW3 29.27S 6HR MIN TEMP: 26; 6HR MAX TEMP: 29; 6HR PCP: 0.01; MT WASHINGTON NOT AVBL $$ VTZ005-007-008-130700- VERMONT CITY SKY/WX TMP DP RH WIND PRES REMARKS ST JOHNSBURY N/A 24 18 77 MISG 29.25F MONTPELIER FLURRIES 21 18 88 NW14G21 29.30S WCI 8 BURLINGTON FLURRIES 22 18 85 NE9 29.36S $$ MAZ007-012-024-CTZ003-RIZ002-NYZ038-NYZ072-130700- SOUTHERN NEW ENGLAND AND NY CITY SKY/WX TMP DP RH WIND PRES REMARKS BOSTON CLOUDY 35 29 78 W15 29.23F WORCESTER CLOUDY 25 19 78 W24G35 29.22R WCI 9 NANTUCKET CLOUDY 39 37 92 W14 29.25S PROVIDENCE CLOUDY 32 26 78 W18G29 29.29S HARTFORD MOCLDY 26 16 65 NW12 29.37F WCI 16 ALBANY CLOUDY 20 4 50 NW20G26 29.45S WCI 4 NEW YORK CITY MOCLDY 30 14 51 NW21 29.48R WCI 17 $$ ANZ081-ANZ082-ANZ150-NHZ014-MEZ023>029-130700- COASTAL MARINE OBSERVATIONS STATION/POSITION TIME TEMP WIND PRES WAVE AIR SEA DIR/SP/G HT/PER (UTC) (F) (DEG/KT/KT) (MB) (FT/S) MOUNT DESERT ROC 0600 50 160/ 16/ 18 986.2F MATINICUS ROCK 0500 49 190/ 13/ 14 986.3F ISLE OF SHOALS 0500 33 290/ 13/ 17 988.6F JEFFREYS LEDGE 0536 48 N/A 4/ 6 GEORGES BANK BUO 0450 54 53 991.3 8/ 7 $$ .............KEY.............. WCI - WIND CHILL TC - TEMPERATURE IN CELSIUS VSB - VISIBILITY IN MILES HX - HEAT INDEX FAIR- INDICATES FEW OR NO CLOUDS BELOW 12,000 FT, WITH NO SIGNIFICANT WEATHER AND/OR OBSTRUCTIONS TO VISIBILITY.

USA.gov is the U.S. government's official web portal to all federal, state and local government web resources and services.